Index of /20260412/WXO-DD/model_gdps/15km/12/077
Name Last modified Size Description
Parent Directory -
20260412T12Z_MSC_GDPS_AirTemp_AGL-120m_LatLon0.15_PT077H.grib2 2026-04-12 16:17 915K
20260412T12Z_MSC_GDPS_AirTemp_AGL-2m_LatLon0.15_PT077H.grib2 2026-04-12 16:17 1.0M
20260412T12Z_MSC_GDPS_AirTemp_AGL-40m_LatLon0.15_PT077H.grib2 2026-04-12 16:17 936K
20260412T12Z_MSC_GDPS_AirTemp_AGL-80m_LatLon0.15_PT077H.grib2 2026-04-12 16:17 924K
20260412T12Z_MSC_GDPS_Albedo_Sfc_LatLon0.15_PT077H.grib2 2026-04-12 16:17 248K
20260412T12Z_MSC_GDPS_ConvectivePrecip-Accum_Sfc_LatLon0.15_PT077H.grib2 2026-04-12 16:17 3.0M
20260412T12Z_MSC_GDPS_DewPointDepression_AGL-2m_LatLon0.15_PT077H.grib2 2026-04-12 16:17 757K
20260412T12Z_MSC_GDPS_DewPoint_AGL-2m_LatLon0.15_PT077H.grib2 2026-04-12 16:17 617K
20260412T12Z_MSC_GDPS_DownwardLongwaveRadiationFlux-Accum_Sfc_LatLon0.15_PT077H.grib2 2026-04-12 16:17 919K
20260412T12Z_MSC_GDPS_DownwardShortwaveRadiationFlux-Accum_Sfc_LatLon0.15_PT077H.grib2 2026-04-12 16:17 900K
20260412T12Z_MSC_GDPS_FreezingRain-Accum1h_Sfc_LatLon0.15_PT077H.grib2 2026-04-12 16:17 39K
20260412T12Z_MSC_GDPS_FreezingRain-Accum_Sfc_LatLon0.15_PT077H.grib2 2026-04-12 16:17 195K
20260412T12Z_MSC_GDPS_IcePellets-Accum1h_Sfc_LatLon0.15_PT077H.grib2 2026-04-12 16:17 12K
20260412T12Z_MSC_GDPS_IcePellets-Accum_Sfc_LatLon0.15_PT077H.grib2 2026-04-12 16:17 93K
20260412T12Z_MSC_GDPS_LatentHeatNetFlux_Sfc_LatLon0.15_PT077H.grib2 2026-04-12 16:17 512K
20260412T12Z_MSC_GDPS_NetLongwaveRadiationFlux-Accum_Sfc_LatLon0.15_PT077H.grib2 2026-04-12 16:17 1.0M
20260412T12Z_MSC_GDPS_NetShortwaveRadiationFlux-Accum_Sfc_LatLon0.15_PT077H.grib2 2026-04-12 16:17 1.1M
20260412T12Z_MSC_GDPS_O3MixingRatio_LatLon0.15_PT077H.grib2 2026-04-12 17:06 2.3M
20260412T12Z_MSC_GDPS_O3_EAtm_LatLon0.15_PT077H.grib2 2026-04-12 17:06 2.1M
20260412T12Z_MSC_GDPS_PlanetaryBoundaryLayerHeight_Sfc_LatLon0.15_PT077H.grib2 2026-04-12 16:17 2.4M
20260412T12Z_MSC_GDPS_Precip-Accum1h_Sfc_LatLon0.15_PT077H.grib2 2026-04-12 16:17 3.2M
20260412T12Z_MSC_GDPS_Precip-Accum_Sfc_LatLon0.15_PT077H.grib2 2026-04-12 16:17 4.8M
20260412T12Z_MSC_GDPS_PrecipRate_Sfc_LatLon0.15_PT077H.grib2 2026-04-12 16:17 2.9M
20260412T12Z_MSC_GDPS_Pressure_MSL_LatLon0.15_PT077H.grib2 2026-04-12 16:17 822K
20260412T12Z_MSC_GDPS_Pressure_Sfc_LatLon0.15_PT077H.grib2 2026-04-12 16:17 1.1M
20260412T12Z_MSC_GDPS_RadiativeTemp_Sfc_LatLon0.15_PT077H.grib2 2026-04-12 16:17 670K
20260412T12Z_MSC_GDPS_Rain-Accum1h_Sfc_LatLon0.15_PT077H.grib2 2026-04-12 16:17 1.6M
20260412T12Z_MSC_GDPS_Rain-Accum_Sfc_LatLon0.15_PT077H.grib2 2026-04-12 16:17 3.6M
20260412T12Z_MSC_GDPS_RelativeHumidity_AGL-2m_LatLon0.15_PT077H.grib2 2026-04-12 16:17 1.0M
20260412T12Z_MSC_GDPS_Runoff-Accum_Sfc_LatLon0.15_PT077H.grib2 2026-04-12 16:17 94K
20260412T12Z_MSC_GDPS_SensibleHeatNetFlux_Sfc_LatLon0.15_PT077H.grib2 2026-04-12 16:17 623K
20260412T12Z_MSC_GDPS_Snow-Accum1h_Sfc_LatLon0.15_PT077H.grib2 2026-04-12 16:17 1.2M
20260412T12Z_MSC_GDPS_Snow-Accum_Sfc_LatLon0.15_PT077H.grib2 2026-04-12 16:17 1.8M
20260412T12Z_MSC_GDPS_SnowDepth_Sfc_LatLon0.15_PT077H.grib2 2026-04-12 16:17 1.8M
20260412T12Z_MSC_GDPS_SoilTemp_DBS-0to10cm_LatLon0.15_PT077H.grib2 2026-04-12 16:17 508K
20260412T12Z_MSC_GDPS_SoilTemp_Sfc_LatLon0.15_PT077H.grib2 2026-04-12 16:17 581K
20260412T12Z_MSC_GDPS_SoilVolumetricWaterContent_DBS-0to10cm_LatLon0.15_PT077H.grib2 2026-04-12 16:17 551K
20260412T12Z_MSC_GDPS_SoilVolumetricWaterContent_DBS-0to1cm_LatLon0.15_PT077H.grib2 2026-04-12 16:17 651K
20260412T12Z_MSC_GDPS_SpecificHumidity_AGL-120m_LatLon0.15_PT077H.grib2 2026-04-12 16:17 1.1M
20260412T12Z_MSC_GDPS_SpecificHumidity_AGL-2m_LatLon0.15_PT077H.grib2 2026-04-12 16:17 1.2M
20260412T12Z_MSC_GDPS_SpecificHumidity_AGL-40m_LatLon0.15_PT077H.grib2 2026-04-12 16:17 1.1M
20260412T12Z_MSC_GDPS_SpecificHumidity_AGL-80m_LatLon0.15_PT077H.grib2 2026-04-12 16:17 1.1M
20260412T12Z_MSC_GDPS_SpecificHumidity_Sfc_LatLon0.15_PT077H.grib2 2026-04-12 16:17 658K
20260412T12Z_MSC_GDPS_TotalCloudCover_Sfc_LatLon0.15_PT077H.grib2 2026-04-12 16:17 825K
20260412T12Z_MSC_GDPS_UVIndex-ClearSky_Sfc_LatLon0.15_PT077H.grib2 2026-04-12 17:06 1.0M
20260412T12Z_MSC_GDPS_UVIndex_Sfc_LatLon0.15_PT077H.grib2 2026-04-12 17:06 1.5M
20260412T12Z_MSC_GDPS_UpwardLongwaveRadiationFlux_NTAtm_LatLon0.15_PT077H.grib2 2026-04-12 16:17 835K
20260412T12Z_MSC_GDPS_WindDir_AGL-10m_LatLon0.15_PT077H.grib2 2026-04-12 16:17 1.4M
20260412T12Z_MSC_GDPS_WindDir_AGL-120m_LatLon0.15_PT077H.grib2 2026-04-12 16:17 1.4M
20260412T12Z_MSC_GDPS_WindDir_AGL-40m_LatLon0.15_PT077H.grib2 2026-04-12 16:17 1.4M
20260412T12Z_MSC_GDPS_WindDir_AGL-80m_LatLon0.15_PT077H.grib2 2026-04-12 16:17 1.4M
20260412T12Z_MSC_GDPS_WindDir_IsbL-0700_LatLon0.15_PT077H.grib2 2026-04-12 16:17 1.6M
20260412T12Z_MSC_GDPS_WindGust-Max_AGL-10m_LatLon0.15_PT077H.grib2 2026-04-12 16:17 2.2M
20260412T12Z_MSC_GDPS_WindGust-Min_AGL-10m_LatLon0.15_PT077H.grib2 2026-04-12 16:17 2.2M
20260412T12Z_MSC_GDPS_WindGust_AGL-10m_LatLon0.15_PT077H.grib2 2026-04-12 16:17 2.2M
20260412T12Z_MSC_GDPS_WindSpeed_AGL-10m_LatLon0.15_PT077H.grib2 2026-04-12 16:17 1.1M
20260412T12Z_MSC_GDPS_WindSpeed_AGL-120m_LatLon0.15_PT077H.grib2 2026-04-12 16:17 1.2M
20260412T12Z_MSC_GDPS_WindSpeed_AGL-40m_LatLon0.15_PT077H.grib2 2026-04-12 16:17 1.2M
20260412T12Z_MSC_GDPS_WindSpeed_AGL-80m_LatLon0.15_PT077H.grib2 2026-04-12 16:17 1.2M
20260412T12Z_MSC_GDPS_WindSpeed_IsbL-0700_LatLon0.15_PT077H.grib2 2026-04-12 16:17 1.5M
20260412T12Z_MSC_GDPS_WindU_AGL-10m_LatLon0.15_PT077H.grib2 2026-04-12 16:17 1.6M
20260412T12Z_MSC_GDPS_WindU_AGL-120m_LatLon0.15_PT077H.grib2 2026-04-12 16:17 1.0M
20260412T12Z_MSC_GDPS_WindU_AGL-40m_LatLon0.15_PT077H.grib2 2026-04-12 16:17 1.0M
20260412T12Z_MSC_GDPS_WindU_AGL-80m_LatLon0.15_PT077H.grib2 2026-04-12 16:17 1.0M
20260412T12Z_MSC_GDPS_WindU_IsbL-0700_LatLon0.15_PT077H.grib2 2026-04-12 16:17 1.2M
20260412T12Z_MSC_GDPS_WindV_AGL-10m_LatLon0.15_PT077H.grib2 2026-04-12 16:17 1.3M
20260412T12Z_MSC_GDPS_WindV_AGL-120m_LatLon0.15_PT077H.grib2 2026-04-12 16:17 1.0M
20260412T12Z_MSC_GDPS_WindV_AGL-40m_LatLon0.15_PT077H.grib2 2026-04-12 16:17 1.0M
20260412T12Z_MSC_GDPS_WindV_AGL-80m_LatLon0.15_PT077H.grib2 2026-04-12 16:17 1.0M
20260412T12Z_MSC_GDPS_WindV_IsbL-0700_LatLon0.15_PT077H.grib2 2026-04-12 16:17 1.2M